CW9854 Weather Reports


Display with metric or nautical units.
time (UTC)temp
F
wind
direction
speed
MPH
gust
MPH
rain 1hr
in
rain 24hr
in
rain mn
in
humidity
%
barometer
mb
20260508213003 56 217 2.0 4.0 0.00 0.20 0.09 40 1009.5
20260508212508 56 230 2.0 6.0 0.00 0.20 0.09 42 1009.4
20260508212003 56 216 2.0 6.0 0.00 0.20 0.09 44 1009.4
20260508211503 57 211 2.0 5.0 0.00 0.20 0.09 44 1009.4
20260508211217 57 206 2.0 4.0 0.00 0.20 0.09 42 1009.3
20260508210503 57 198 1.0 4.0 0.00 0.20 0.09 48 1009.4
20260508210003 56 229 1.0 3.0 0.00 0.20 0.09 46 1009.5
20260508205503 56 230 1.0 4.0 0.00 0.20 0.09 48 1009.5
20260508205003 57 230 1.0 4.0 0.00 0.20 0.09 45 1009.5
20260508204503 56 227 2.0 4.0 0.00 0.20 0.09 46 1009.5
20260508204003 56 220 2.0 4.0 0.00 0.20 0.09 50 1009.6
20260508203503 56 225 2.0 4.0 0.00 0.20 0.09 47 1009.6
20260508203217 56 225 1.0 4.0 0.00 0.20 0.09 48 1009.6
20260508202503 56 242 1.0 3.0 0.00 0.20 0.09 42 1009.6
20260508202003 57 236 2.0 7.0 0.00 0.20 0.09 53 1009.8
20260508201718 57 232 2.0 7.0 0.00 0.20 0.09 45 1009.9
20260508201008 58 205 2.0 5.0 0.00 0.20 0.09 49 1009.7
20260508200003 58 197 2.0 4.0 0.00 0.20 0.09 46 1009.9
20260508195503 58 221 3.0 9.0 0.00 0.20 0.09 54 1009.9
20260508195003 58 226 2.0 9.0 0.00 0.20 0.09 48 1010.0
20260508194503 58 221 2.0 4.0 0.00 0.20 0.09 53 1010.1
20260508194217 58 214 2.0 8.0 0.00 0.20 0.09 47 1010.1
20260508193504 58 211 2.0 8.0 0.00 0.20 0.09 46 1010.1
20260508193003 58 220 2.0 4.0 0.00 0.20 0.09 48 1010.1
20260508192503 58 231 1.0 4.0 0.00 0.20 0.09 44 1010.3
20260508192217 58 221 1.0 4.0 0.00 0.20 0.09 48 1010.4
20260508191503 58 215 2.0 4.0 0.00 0.20 0.09 53 1010.5
20260508191004 58 207 2.0 8.0 0.00 0.20 0.09 54 1010.4
20260508190503 57 213 2.0 8.0 0.00 0.20 0.09 53 1010.5
20260508190003 56 238 2.0 6.0 0.00 0.20 0.09 50 1010.6
20260508185503 56 250 1.0 5.0 0.00 0.20 0.09 55 1010.6
20260508185003 55 189 1.0 4.0 0.00 0.20 0.09 57 1010.7
20260508184504 55 206 1.0 3.0 0.00 0.20 0.09 48 1010.7
20260508184003 56 226 1.0 3.0 0.00 0.20 0.09 48 1010.7
20260508183506 57 212 2.0 3.0 0.00 0.20 0.09 45 1010.7
20260508183003 57 219 2.0 7.0 0.00 0.20 0.09 48 1010.7
20260508182717 57 215 2.0 7.0 0.00 0.20 0.09 45 1010.7
20260508182003 57 235 2.0 7.0 0.00 0.20 0.09 44 1010.6
20260508181717 57 229 2.0 7.0 0.00 0.20 0.09 48 1010.6
20260508181218 57 219 2.0 7.0 0.00 0.20 0.09 48 1010.6
20260508180503 56 253 2.0 4.0 0.00 0.20 0.09 54 1010.8
20260508180004 56 251 2.0 4.0 0.00 0.20 0.09 49 1010.8
20260508175503 55 228 2.0 6.0 0.00 0.20 0.09 50 1010.8
20260508175003 55 195 2.0 6.0 0.00 0.20 0.09 52 1010.9
20260508174503 55 226 2.0 4.0 0.00 0.20 0.09 59 1011.1
20260508174003 56 216 2.0 4.0 0.00 0.20 0.09 47 1011.1
20260508173505 55 212 2.0 4.0 0.00 0.20 0.09 51 1011.1
20260508173003 55 232 1.0 4.0 0.00 0.20 0.09 54 1011.1
20260508172503 54 264 1.0 3.0 0.00 0.20 0.09 56 1011.2
20260508172003 54 348 1.0 3.0 0.00 0.20 0.09 56 1011.2
20260508171503 54 302 1.0 4.0 0.00 0.20 0.09 57 1011.1
20260508171003 54 252 2.0 4.0 0.00 0.20 0.09 54 1011.3
20260508170503 54 229 2.0 4.0 0.00 0.20 0.09 57 1011.2
20260508170004 54 244 2.0 4.0 0.00 0.20 0.09 52 1011.4
20260508165504 53 281 2.0 4.0 0.00 0.20 0.09 59 1011.4
20260508165004 53 213 1.0 4.0 0.00 0.20 0.09 61 1011.4
20260508164503 53 234 1.0 3.0 0.00 0.20 0.09 60 1011.5
20260508164003 53 262 1.0 3.0 0.00 0.20 0.09 62 1011.6
20260508163508 53 342 1.0 3.0 0.00 0.20 0.09 58 1011.6
20260508163003 52 20 1.0 5.0 0.00 0.20 0.09 62 1011.6
20260508162503 52 8 1.0 5.0 0.00 0.20 0.09 64 1011.6
20260508162217 52 342 1.0 4.0 0.00 0.20 0.09 65 1011.6
20260508161503 52 351 1.0 3.0 0.00 0.20 0.09 67 1011.8
20260508161217 52 337 1.0 4.0 0.00 0.20 0.09 65 1011.8
20260508160718 52 251 2.0 4.0 0.00 0.20 0.09 68 1011.9
20260508160217 51 228 1.0 3.0 0.00 0.20 0.09 70 1011.9
20260508155503 50 256 1.0 4.0 0.00 0.20 0.09 71 1011.9
20260508155003 50 272 2.0 4.0 0.00 0.20 0.09 64 1011.9
20260508154718 50 242 1.0 4.0 0.00 0.20 0.09 76 1012.0
20260508154217 49 217 2.0 5.0 0.00 0.20 0.09 77 1012.1
20260508153504 48 232 2.0 5.0 0.00 0.20 0.09 74 1012.4
20260508153006 48 234 2.0 5.0 0.00 0.20 0.09 79 1012.4
20260508152503 48 235 2.0 5.0 0.00 0.20 0.09 81 1012.4
20260508152003 47 233 2.0 5.0 0.00 0.20 0.09 81 1012.3
20260508151503 47 232 2.0 6.0 0.00 0.20 0.09 81 1012.3
20260508151003 47 255 1.0 6.0 0.00 0.20 0.09 84 1012.4
20260508150504 46 223 2.0 6.0 0.00 0.20 0.09 83 1012.3
20260508150217 46 216 2.0 6.0 0.00 0.20 0.09 83 1012.3
20260508145503 46 216 2.0 6.0 0.00 0.20 0.09 85 1012.2
20260508145003 45 219 2.0 5.0 0.00 0.20 0.09 86 1012.2
20260508144718 45 225 1.0 5.0 0.00 0.20 0.09 86 1012.2
20260508144003 45 197 1.0 3.0 0.00 0.20 0.09 87 1012.3
20260508143503 45 194 1.0 3.0 0.00 0.20 0.09 88 1012.2
20260508143003 44 251 1.0 3.0 0.00 0.20 0.09 87 1012.2
20260508142718 44 255 1.0 3.0 0.00 0.20 0.09 89 1012.1
20260508142004 44 179 1.0 3.0 0.00 0.20 0.09 89 1012.1
20260508141503 43 193 1.0 4.0 0.00 0.20 0.09 91 1012.1
20260508141003 43 209 1.0 4.0 0.00 0.20 0.09 90 1012.1
20260508140503 43 226 1.0 3.0 0.00 0.20 0.09 92 1012.2
20260508140003 43 232 1.0 3.0 0.00 0.20 0.09 92 1012.4
20260508135505 43 224 1.0 3.0 0.00 0.20 0.09 93 1012.4
20260508135003 42 208 1.0 3.0 0.00 0.20 0.09 93 1012.3
20260508134503 42 186 0.0 1.0 0.00 0.20 0.09 93 1012.3
20260508134003 42 186 0.0 1.0 0.01 0.20 0.09 93 1012.2
20260508133503 42 0 0.0 0.0 0.01 0.20 0.09 93 1012.4
20260508133003 41 0 0.0 0.0 0.01 0.20 0.09 93 1012.5
20260508132504 41 0 0.0 0.0 0.01 0.20 0.09 93 1012.5
20260508132003 41 0 0.0 0.0 0.01 0.20 0.09 94 1012.4
20260508131503 41 0 0.0 0.0 0.01 0.20 0.09 94 1012.4
20260508131003 41 0 0.0 0.0 0.01 0.20 0.09 94 1012.4
20260508130503 41 0 0.0 0.0 0.01 0.20 0.09 94 1012.3
20260508130004 41 0 0.0 0.0 0.02 0.20 0.09 94 1012.2
20260508125503 41 0 0.0 0.0 0.02 0.20 0.09 94 1012.3
20260508125003 41 0 0.0 0.0 0.02 0.20 0.09 95 1012.2
20260508124717 40 0 0.0 0.0 0.02 0.20 0.09 95 1012.2
20260508124003 40 0 0.0 0.0 0.02 0.19 0.08 94 1012.2
20260508123503 40 0 0.0 0.0 0.03 0.19 0.08 94 1012.3
20260508123003 40 0 0.0 0.0 0.03 0.19 0.08 94 1012.2
20260508122504 40 0 0.0 0.0 0.04 0.19 0.08 94 1012.2
20260508122003 40 0 0.0 0.0 0.05 0.19 0.08 94 1012.1
20260508121503 40 0 0.0 0.0 0.06 0.19 0.08 94 1012.2
20260508121003 40 0 0.0 0.0 0.06 0.19 0.08 94 1012.2
20260508120503 40 173 0.0 1.0 0.07 0.19 0.08 94 1012.2
20260508120004 40 173 0.0 1.0 0.06 0.18 0.07 94 1012.2
20260508115503 40 173 0.0 2.0 0.06 0.18 0.07 94 1012.2
20260508115003 40 167 0.0 2.0 0.06 0.18 0.07 94 1012.2
20260508114717 40 154 0.0 2.0 0.06 0.18 0.07 94 1012.3
20260508114218 40 137 0.0 2.0 0.05 0.17 0.06 94 1012.1
20260508113504 40 149 0.0 2.0 0.04 0.16 0.05 94 1012.3
20260508113004 40 174 0.0 2.0 0.05 0.16 0.05 94 1012.3
20260508112504 41 182 0.0 2.0 0.04 0.15 0.04 94 1012.2
20260508112004 41 169 0.0 2.0 0.03 0.14 0.03 94 1012.1
20260508111503 41 151 0.0 2.0 0.02 0.13 0.02 94 1012.0
20260508111003 41 214 0.0 1.0 0.02 0.13 0.02 94 1011.6
20260508110503 41 0 0.0 0.0 0.01 0.12 0.01 95 1011.5
20260508110004 41 0 0.0 0.0 0.01 0.12 0.01 95 1011.4
20260508105503 41 0 0.0 0.0 0.01 0.12 0.01 95 1011.2
20260508105004 42 214 0.0 1.0 0.01 0.12 0.01 94 1011.1
20260508104719 42 214 0.0 1.0 0.01 0.12 0.01 94 1011.2
20260508104003 42 214 0.0 1.0 0.01 0.12 0.01 95 1011.2
20260508103503 42 214 0.0 1.0 0.01 0.12 0.01 95 1011.2
20260508103003 42 214 0.0 1.0 0.00 0.11 0.00 95 1011.2
20260508102718 42 214 0.0 1.0 0.00 0.11 0.00 95 1011.1
20260508102003 42 0 0.0 0.0 0.00 0.11 0.00 95 1011.0
20260508101503 42 0 0.0 0.0 0.00 0.11 0.00 95 1010.9
20260508101217 42 0 0.0 0.0 0.00 0.11 0.00 95 1010.9
20260508100504 42 0 0.0 0.0 0.00 0.11 0.00 95 1010.8
20260508100217 42 0 0.0 0.0 0.00 0.11 0.00 95 1011.0
20260508095718 42 0 0.0 0.0 0.00 0.11 0.00 95 1011.0
20260508095003 42 0 0.0 0.0 0.00 0.11 0.00 95 1010.8
20260508094505 42 0 0.0 0.0 0.00 0.11 0.00 95 1010.7
20260508094217 42 0 0.0 0.0 0.00 0.11 0.00 95 1010.7
20260508093503 42 214 0.0 1.0 0.00 0.11 0.00 95 1010.7
20260508093003 42 214 0.0 1.0 0.00 0.11 0.00 95 1011.0
20260508092503 42 0 0.0 0.0 0.00 0.11 0.00 95 1011.1
20260508092003 42 0 0.0 0.0 0.00 0.11 0.00 95 1011.0
20260508091503 42 0 0.0 0.0 0.00 0.11 0.00 95 1010.9
20260508091005 42 214 0.0 1.0 0.00 0.11 0.00 95 1011.1
20260508090503 42 214 0.0 2.0 0.00 0.11 0.00 95 1010.8
20260508090003 42 214 0.0 2.0 0.00 0.11 0.00 95 1011.2
20260508085503 42 214 0.0 2.0 0.00 0.11 0.00 95 1011.3
20260508085003 42 0 0.0 0.0 0.00 0.11 0.00 95 1011.2
20260508084504 42 0 0.0 0.0 0.00 0.11 0.00 95 1011.3
20260508084003 42 0 0.0 0.0 0.00 0.11 0.00 95 1011.3
20260508083504 42 214 0.0 1.0 0.00 0.11 0.00 95 1011.2
20260508083003 41 214 0.0 1.0 0.00 0.11 0.00 95 1011.3
20260508082503 41 217 0.0 3.0 0.00 0.11 0.00 95 1011.3
20260508082003 41 221 0.0 3.0 0.00 0.11 0.00 95 1011.2
20260508081504 41 174 0.0 2.0 0.00 0.11 0.00 95 1011.2
20260508081003 41 144 1.0 2.0 0.00 0.11 0.00 95 1011.1
20260508080503 41 130 1.0 2.0 0.00 0.11 0.00 95 1011.1
20260508080004 40 0 0.0 0.0 0.00 0.11 0.00 95 1011.1
20260508075503 40 0 0.0 0.0 0.00 0.11 0.00 95 1011.1
20260508075003 40 0 0.0 0.0 0.00 0.11 0.00 95 1011.1
20260508074503 40 0 0.0 0.0 0.00 0.11 0.00 95 1011.1
20260508074003 40 0 0.0 0.0 0.00 0.11 0.00 95 1011.1
20260508073503 40 0 0.0 0.0 0.00 0.11 0.00 95 1011.1
20260508073003 40 0 0.0 0.0 0.00 0.11 0.00 95 1011.2
20260508072503 39 0 0.0 0.0 0.00 0.11 0.00 95 1011.2
20260508072004 39 0 0.0 0.0 0.00 0.11 0.00 95 1011.2
20260508071503 39 0 0.0 0.0 0.00 0.11 0.00 95 1011.2
20260508071003 39 0 0.0 0.0 0.00 0.11 0.00 95 1011.2
20260508070503 39 0 0.0 0.0 0.00 0.11 0.00 94 1011.3
20260508070004 39 0 0.0 0.0 0.00 0.11 0.00 95 1011.4
20260508065504 39 0 0.0 0.0 0.00 0.11 0.00 94 1011.4
20260508065003 38 0 0.0 0.0 0.00 0.11 0.00 94 1011.4
20260508064503 38 0 0.0 0.0 0.00 0.11 0.00 94 1011.4
20260508064003 38 0 0.0 0.0 0.00 0.11 0.00 94 1011.3
20260508063503 38 0 0.0 0.0 0.00 0.11 0.00 94 1011.4
20260508063003 38 0 0.0 0.0 0.00 0.11 0.00 94 1011.3
20260508062503 38 0 0.0 0.0 0.00 0.11 0.00 94 1011.4
20260508062218 38 0 0.0 0.0 0.00 0.11 0.00 94 1011.4
20260508061503 38 0 0.0 0.0 0.00 0.11 0.00 94 1011.4
20260508061218 38 0 0.0 0.0 0.00 0.11 0.00 94 1011.5
20260508060719 38 0 0.0 0.0 0.00 0.11 0.00 94 1011.5
20260508060003 38 0 0.0 0.0 0.00 0.11 0.00 94 1011.3
20260508055503 38 0 0.0 0.0 0.00 0.11 0.00 94 1011.3
20260508055003 38 0 0.0 0.0 0.00 0.11 0.00 93 1011.4
20260508054503 38 0 0.0 0.0 0.00 0.11 0.00 93 1011.5
20260508054003 38 0 0.0 0.0 0.00 0.11 0.00 93 1011.6
20260508053503 38 0 0.0 0.0 0.00 0.11 0.00 93 1011.4
20260508053003 38 0 0.0 0.0 0.00 0.11 0.00 93 1011.4
20260508052718 38 0 0.0 0.0 0.00 0.11 0.00 93 1011.6
20260508052003 38 0 0.0 0.0 0.00 0.11 0.00 93 1011.6
20260508051508 39 0 0.0 0.0 0.00 0.11 0.00 93 1011.5
20260508051003 39 0 0.0 0.0 0.00 0.11 0.00 93 1011.6
20260508050503 39 0 0.0 0.0 0.00 0.11 0.00 93 1011.8
20260508050003 39 0 0.0 0.0 0.00 0.11 0.00 93 1011.8
20260508045503 39 0 0.0 0.0 0.00 0.11 0.00 93 1011.9
20260508045217 39 0 0.0 0.0 0.00 0.11 0.00 93 1011.8
20260508044503 39 0 0.0 0.0 0.00 0.11 0.00 93 1011.7
20260508044003 39 0 0.0 0.0 0.00 0.11 0.00 93 1011.6
20260508043503 39 0 0.0 0.0 0.00 0.11 0.00 93 1011.6
20260508043003 40 0 0.0 0.0 0.00 0.11 0.00 93 1011.6
20260508042503 40 0 0.0 0.0 0.00 0.11 0.00 93 1011.6
20260508042003 40 0 0.0 0.0 0.00 0.11 0.00 92 1011.8
20260508041504 40 0 0.0 0.0 0.00 0.11 0.00 92 1011.7
20260508041003 40 0 0.0 0.0 0.00 0.11 0.00 92 1011.6
20260508040503 40 0 0.0 0.0 0.00 0.11 0.00 92 1011.6
20260508040004 40 0 0.0 0.0 0.00 0.11 0.00 92 1011.6
20260508035719 40 0 0.0 0.0 0.00 0.11 0.11 92 1011.7
20260508035003 40 0 0.0 0.0 0.00 0.11 0.11 92 1011.7
20260508034503 40 0 0.0 0.0 0.00 0.11 0.11 92 1011.7
20260508034003 40 0 0.0 0.0 0.00 0.11 0.11 92 1011.7
20260508033503 40 0 0.0 0.0 0.00 0.11 0.11 92 1011.8
20260508033003 40 130 0.0 1.0 0.00 0.11 0.11 92 1011.7
20260508032503 41 130 0.0 1.0 0.01 0.11 0.11 92 1011.7
20260508032003 41 130 0.0 1.0 0.01 0.11 0.11 91 1011.7
20260508031503 41 0 0.0 0.0 0.02 0.11 0.11 91 1011.5
20260508031003 41 0 0.0 0.0 0.03 0.11 0.11 91 1011.5
20260508030718 41 0 0.0 0.0 0.04 0.11 0.11 91 1011.4
20260508030004 42 0 0.0 0.0 0.04 0.11 0.11 91 1011.4
20260508025503 42 0 0.0 0.0 0.05 0.11 0.11 92 1011.4
20260508025003 42 0 0.0 0.0 0.05 0.11 0.11 92 1011.4
20260508024503 42 130 0.0 1.0 0.05 0.11 0.11 92 1011.4
20260508024003 42 130 0.0 1.0 0.06 0.11 0.11 91 1011.3
20260508023503 42 137 0.0 3.0 0.06 0.11 0.11 91 1011.4
20260508023003 42 176 0.0 3.0 0.08 0.11 0.11 91 1011.4
20260508022503 42 258 1.0 2.0 0.08 0.10 0.10 92 1011.4
20260508022003 43 266 1.0 2.0 0.09 0.10 0.10 92 1011.7
20260508021503 43 250 1.0 2.0 0.08 0.09 0.09 92 1011.5
20260508021003 43 227 1.0 2.0 0.07 0.08 0.08 91 1011.4
20260508020503 43 227 1.0 2.0 0.06 0.07 0.07 91 1011.6
20260508020003 43 227 1.0 2.0 0.06 0.07 0.07 91 1011.5
20260508015717 43 227 1.0 2.0 0.06 0.07 0.07 91 1011.5
20260508015003 43 227 1.0 2.0 0.05 0.06 0.06 90 1011.5
20260508014503 43 227 1.0 2.0 0.05 0.06 0.06 90 1011.3
20260508014003 43 236 1.0 3.0 0.04 0.05 0.05 90 1011.5
20260508013717 43 238 1.0 3.0 0.04 0.05 0.05 90 1011.3
20260508013003 43 228 1.0 3.0 0.02 0.03 0.03 90 1011.4
20260508012503 43 220 1.0 3.0 0.02 0.02 0.02 89 1011.3
20260508012003 43 192 1.0 2.0 0.01 0.01 0.01 89 1011.2
20260508011503 43 143 0.0 2.0 0.01 0.01 0.01 88 1011.0
20260508011003 43 105 0.0 1.0 0.01 0.01 0.01 88 1010.9
20260508010503 43 0 0.0 0.0 0.01 0.01 0.01 88 1010.7
20260508010003 43 0 0.0 0.0 0.01 0.01 0.01 87 1010.6
20260508005503 43 0 0.0 0.0 0.01 0.01 0.01 87 1010.4
20260508005004 43 0 0.0 0.0 0.01 0.01 0.01 87 1010.4
20260508004717 44 105 0.0 1.0 0.01 0.01 0.01 87 1010.4
20260508004003 44 106 1.0 2.0 0.01 0.01 0.01 87 1010.5
20260508003503 44 36 1.0 2.0 0.01 0.01 0.01 86 1010.6
20260508003003 44 334 1.0 2.0 0.01 0.01 0.01 85 1010.6
20260508002503 44 319 1.0 3.0 0.00 0.00 0.00 85 1010.6
20260508002004 45 299 2.0 4.0 0.00 0.00 0.00 83 1010.7
20260508001503 45 288 2.0 4.0 0.00 0.00 0.00 82 1010.6
20260508001003 46 286 2.0 4.0 0.00 0.00 0.00 80 1010.5
20260508000003 48 301 2.0 4.0 0.00 0.00 0.00 74 1010.4
20260507235503 48 276 2.0 4.0 0.00 0.00 0.00 73 1010.0
20260507235003 49 276 2.0 4.0 0.00 0.00 0.00 71 1010.1
20260507234503 49 275 1.0 3.0 0.00 0.00 0.00 72 1010.0
20260507234003 49 0 0.0 0.0 0.00 0.00 0.00 68 1009.9
20260507233718 50 0 0.0 0.0 0.00 0.00 0.00 66 1009.8
20260507233003 50 0 0.0 0.0 0.00 0.00 0.00 66 1009.7
20260507232503 50 0 0.0 0.0 0.00 0.00 0.00 66 1009.7
20260507232003 50 261 0.0 1.0 0.00 0.00 0.00 67 1009.7
20260507231503 50 261 0.0 1.0 0.00 0.00 0.00 68 1009.6
20260507231003 50 261 0.0 1.0 0.00 0.00 0.00 68 1009.7
20260507230503 50 261 0.0 3.0 0.00 0.00 0.00 68 1009.6
20260507230004 50 261 1.0 3.0 0.00 0.00 0.00 66 1009.7
20260507225718 50 261 1.0 3.0 0.00 0.00 0.00 62 1009.7
20260507225003 51 261 1.0 3.0 0.00 0.00 0.00 63 1009.7
20260507224504 51 259 1.0 3.0 0.00 0.00 0.00 62 1009.7
20260507224004 51 247 1.0 3.0 0.00 0.00 0.00 62 1009.6
20260507223503 51 232 1.0 3.0 0.00 0.00 0.00 62 1009.7
20260507223003 51 227 1.0 3.0 0.00 0.00 0.00 61 1009.8
20260507222503 51 224 1.0 3.0 0.00 0.00 0.00 61 1009.7
20260507222003 51 222 1.0 2.0 0.00 0.00 0.00 62 1009.7
20260507221503 52 223 1.0 3.0 0.00 0.00 0.00 60 1009.6
20260507221217 52 223 1.0 3.0 0.00 0.00 0.00 62 1009.6
20260507220503 52 222 1.0 3.0 0.00 0.00 0.00 62 1009.7
20260507220003 52 214 1.0 3.0 0.00 0.00 0.00 63 1009.7
20260507215718 52 216 1.0 3.0 0.00 0.00 0.00 64 1009.7
20260507215006 52 257 1.0 3.0 0.00 0.00 0.00 60 1009.9
20260507214503 52 267 1.0 3.0 0.00 0.00 0.00 58 1009.7
20260507214003 51 227 1.0 2.0 0.00 0.00 0.00 62 1009.8
20260507213717 51 208 1.0 2.0 0.00 0.00 0.00 61 1009.8